Location: Maccacari
(45.1333°N, 11.1333°E)
Time: 07:27:18
(UTC+00:00)

SR - Pass Details

Date: 29 January 2021
Orbit: 573 x 882 km, 66.7° (Epoch: 04 March)

Event Time Altitude Azimuth Distance (km) Brightness Sun altitude
Exits shadow 04:48:16 16° 335° (NNW) 1,911 ? -19.6°
Drops below altitude 10° 04:51:07 10° 7° (N) 2,366 ? -19.1°
Sets 04:54:36 0° 27° (NNE) 3,361 ? -18.5°
